Weather in Terpilitsy

Russia / Saint-Petersburg and Leningrad Oblast     59°29′13″N   29°21′44″E
temp.,
°C
wind,
m/s
gust,
m/s
humid.,
%
clouds,
%
prec.,
mm/h
press.,
hPa
HPBL,
m
27 october, wed
wed2700:00+5ssw41094100 0.1 1008427
03:00+5ssw41297100 2.7 1006547
06:00+6wsw41197100 0.6 1005605
09:00+7w51185100 0.8 10061085
12:00+8w51185100 0.2 10071228
15:00+8w51082100 0.4 1008996
18:00+6sw41087100 0.0 1007548
21:00+6s4894100 1.0 1004862
28 october, thu
thu2800:00+6sse51296100 4.1 1001771
03:00+8w51195100 4.4 1001796
06:00+7nw51095100 0.0 1005757
09:00+6nnw3994100 0.0 1010623
12:00+7nnw259188 0.0 1015415
15:00+8nw227996 0.1 1018705
18:00+7sw1180100 0.0 102020
21:00+6s2787100 0.0 1021228
29 october, fri
fri2900:00+6s41091100 0.1 1021446
03:00+7s51487100 0.1 1019594
06:00+8ssw51393100 0.0 1018728
09:00+9sw5139132 0.0 1018592
12:00+10sw614845 0.0 1018530
15:00+11sw6148295 0.0 1019669
18:00+10sw51588100 0.0 1019545
21:00+9ssw51492100 0.0 1019499
30 october, sat
sat3000:00+8ssw414945 0.0 1019484
03:00+8ssw4149529 0.0 1018515
06:00+9ssw4139789 0.0 1018507
09:00+8ssw4129599 0.0 1018457
12:00+10ssw4118898 0.0 1018464
15:00+11s51281100 0.0 1016592
18:00+9s5138793 0.0 1015486
21:00+8ssw5148747 0.0 1015594
31 october, sun
sun3100:00+8ssw413905 0.0 1015611
03:00+7ssw5138940 0.0 1015584
06:00+7ssw514905 0.0 1014511
09:00+6ssw4139326 0.0 1015411
12:00+9ssw4128322 0.0 1015467
15:00+10ssw3108192 0.0 1015511
18:00+8s41188100 0.0 1014331
21:00+7s41188100 0.0 1013310